Etusivu
METAR-TAF:

METAR-TAF

Lentoasemat :

Little Falls/Morrison County Airport (Lindbergh Field)

Little Falls, Minnesota, Yhdysvallat

Leveyspiiri: 45-57N, Pituuspiiri: 094-21W, korkeus merenpinnasta: 342 m

Tämänhetkinen sää

Tämä raportti tehtiin 21 minuuttia sitten, kello 09.58 UTC
Tuuli 7 kn etelästä
Lämpötila -7°C
Kosteus 73%
Ilmanpaine 1011 hPa
Näkyvyys: 16.1 km
Hajonneita pilviä 6500 ft:n korkeudessa
Pilvistä 8500 ft:n korkeudessa

METAR: KLXL 130958Z AUTO 19007KT 10SM BKN065 OVC085 M07/M11 A2984 RMK AO2

Aika: 04:19 (10:19 UTC)


TAF: puuttuu

Säähavainnot ja -ennusteet yli 4000 lentoasemalta (METAR- ja TAF-raportit).

Käytössä olevat sääasemat on merkitty karttaan keltaisilla ja punaisilla pisteillä.

Aseta hiiri pisteen päälle nähdäksesi sääaseman nimen.

Klikkaa sitten nähdäksesi säähavainnot ja -ennusteet.

Kartan vaihtaminen: klikkaa mustalla rastilla varustettuja vihreitä pisteitä, niin voit zoomata sisään; viivalla varustettua vihreää pistettä, niin voit zoomata ulos tai vihreitä nuolia, niin pääset viereisille kartoille.


METAR-TAF: